ORBCOMM FM113

Last updated on Thu Aug 20 2026 00:03:08 GMT+0000 (Coordinated Universal Time)

1 41185U 15081G 26231.26311100 .00000288 00000+0 96945-4 0 9996 2 41185 47.0021 332.3714 0001484 172.2312 187.8598 14.58911263568143
UTC large
Height (km)
Speed (km/s)
/
Latitude / Longitude
Inclination (degrees)
Orbital Period (minutes)
Azimuth
Elevation
Range (km)
Doppler Factor

Next 0 passes for location: London (51.5072 / 0.1276)

No passes found over London.
ORBCOMM FM113